TimeEST,TemperatureF,Dew PointF,Humidity,Sea Level PressureIn,VisibilityMPH,Wind Direction,Wind SpeedMPH,Gust SpeedMPH,PrecipitationIn,Events,Conditions,WindDirDegrees,DateUTC
12:53 AM,12.9,3.0,65,30.52,10.0,East,3.5,-,N/A,,Clear,90,2013-01-25 05:53:00
1:53 AM,12.0,3.0,67,30.51,10.0,Calm,Calm,-,N/A,,Clear,0,2013-01-25 06:53:00
2:53 AM,12.9,3.0,65,30.50,10.0,ESE,3.5,-,N/A,,Clear,110,2013-01-25 07:53:00
3:53 AM,12.9,3.0,65,30.47,10.0,ESE,3.5,-,N/A,,Clear,120,2013-01-25 08:53:00
4:53 AM,12.9,3.0,65,30.45,10.0,SE,4.6,-,N/A,,Partly Cloudy,130,2013-01-25 09:53:00
5:53 AM,12.9,3.9,67,30.43,10.0,SE,3.5,-,N/A,,Mostly Cloudy,130,2013-01-25 10:53:00
6:53 AM,12.9,3.0,65,30.39,10.0,ESE,6.9,-,N/A,,Overcast,110,2013-01-25 11:53:00
7:53 AM,12.9,3.0,65,30.33,10.0,East,8.1,-,N/A,,Overcast,90,2013-01-25 12:53:00
8:53 AM,14.0,3.0,62,30.30,10.0,ESE,8.1,-,N/A,,Overcast,110,2013-01-25 13:53:00
9:42 AM,15.8,3.2,58,30.21,2.0,ESE,4.6,-,0.00,Snow,Light Snow,110,2013-01-25 14:42:00
9:51 AM,15.8,5.0,62,30.21,1.5,East,4.6,-,0.00,Snow,Light Snow,100,2013-01-25 14:51:00
9:53 AM,15.1,6.1,68,30.30,1.5,East,6.9,-,0.00,Snow,Light Snow,100,2013-01-25 14:53:00
10:09 AM,14.0,6.8,73,30.21,0.5,East,4.6,-,0.00,Snow,Snow,100,2013-01-25 15:09:00
10:23 AM,14.0,8.6,79,30.20,0.5,East,3.5,-,0.00,Snow,Snow,90,2013-01-25 15:23:00
10:35 AM,14.0,8.6,79,30.19,0.2,East,4.6,-,0.00,Snow,Heavy Snow,100,2013-01-25 15:35:00
10:53 AM,14.0,10.0,84,30.26,0.2,East,8.1,-,0.00,Fog-Snow,Snow,80,2013-01-25 15:53:00
2:18 PM,17.6,12.2,79,30.02,0.2,NNE,3.5,-,0.00,Fog-Snow,Snow,30,2013-01-25 19:18:00
2:27 PM,17.6,12.2,79,30.01,0.5,Calm,Calm,-,0.00,Fog-Snow,Light Snow,0,2013-01-25 19:27:00
2:48 PM,17.6,12.2,79,30.01,1.0,Variable,3.5,-,0.00,Snow,Light Snow,0,2013-01-25 19:48:00
2:53 PM,17.1,12.0,81,30.09,1.2,Calm,Calm,-,0.00,Snow,Light Snow,0,2013-01-25 19:53:00
3:25 PM,17.6,12.2,79,29.99,0.8,Calm,Calm,-,0.00,Snow,Light Snow,0,2013-01-25 20:25:00
3:41 PM,17.6,12.2,79,29.99,1.0,Calm,Calm,-,0.00,Snow,Light Snow,0,2013-01-25 20:41:00
3:53 PM,19.0,14.0,81,30.07,1.2,Calm,Calm,-,0.00,Snow,Light Snow,0,2013-01-25 20:53:00
4:00 PM,19.4,14.0,80,29.99,0.8,Calm,Calm,-,0.00,Snow,Light Snow,0,2013-01-25 21:00:00
4:05 PM,17.6,12.2,79,29.98,1.5,Calm,Calm,-,0.00,Snow,Light Snow,0,2013-01-25 21:05:00
4:41 PM,17.6,12.2,79,29.99,5.0,Calm,Calm,-,0.00,,Haze,0,2013-01-25 21:41:00
4:53 PM,18.0,12.9,81,30.06,6.0,Calm,Calm,-,0.00,,Haze,0,2013-01-25 21:53:00
5:53 PM,18.0,14.0,84,30.05,7.0,Calm,Calm,-,N/A,,Overcast,0,2013-01-25 22:53:00
6:53 PM,18.0,14.0,84,30.08,7.0,Calm,Calm,-,N/A,,Overcast,0,2013-01-25 23:53:00
7:53 PM,18.0,14.0,84,30.07,7.0,Calm,Calm,-,N/A,,Overcast,0,2013-01-26 00:53:00
8:53 PM,19.0,14.0,81,30.07,9.0,SW,4.6,-,N/A,,Overcast,230,2013-01-26 01:53:00
9:13 PM,17.6,14.0,86,30.00,9.0,WSW,5.8,-,N/A,,Overcast,250,2013-01-26 02:13:00
9:53 PM,19.0,14.0,81,30.09,7.0,West,6.9,-,N/A,,Overcast,260,2013-01-26 02:53:00
10:04 PM,19.4,14.0,80,30.02,6.0,WSW,6.9,-,0.00,Snow,Light Snow,250,2013-01-26 03:04:00
10:53 PM,19.0,14.0,81,30.11,4.0,WSW,6.9,-,0.00,Snow,Light Snow,240,2013-01-26 03:53:00
11:06 PM,19.4,15.8,86,30.03,5.0,WSW,9.2,-,0.00,Snow,Light Snow,240,2013-01-26 04:06:00
11:53 PM,19.0,15.1,85,30.13,4.0,WSW,6.9,-,0.00,Snow,Light Snow,250,2013-01-26 04:53:00